SCP
0 0 0 0 0 0 0 0 0 0 0 0 0 0 0 0 0 0 0 0 0 0 0 0 0 0 0 0 0 0 0 0 0 0 0 0 0 0 0 0 0 0 0
0 0 0 0 0 0 0 0 0 0 0 0 0 0 0 0 0 0 0 0 0 0 0 0 0 0 0 0 0 0 0 0 0 0 0 0 0 0 0 0 0 0 0
0 0 0 0 0 0 0 0 0 0 0 0 0 0 0 0 0 0 0 0 0 0 0 0 0 0 0 0 0 0 0 0 0 0 0 0 0 0 0 0 0 0 0
0 0 0 0 0 0 0 0 0 0 0 0 0 0 0 0 0 0 0 0 0 0 0 0 0 0 0 0 0 0 0 0 0 0 0 0 0 0 0 0 0 0 0
0 0 0 0 0 0 0 0 0 0 0 0 0 0 0 0 0 0 0 0 0 0 0 0 0 0 0 0 0 0 0 0 0 0 0 0 0 0 0 0 0 0 0
0 0 0 0 0 0 0 0 0 0 0 0 0 0 0 0 0 0 0 0 0 0 0 0 0 0 0 0 0 0 0 0 0 0 0 0 0 0 0 0 0 0 0
0 0 0 0 0 0 0 0 0 0 0 0 0 0 0 0 0 0 0 0 0 0 0 0 0 0 0 0 0 0 0 0 0 0 0 0 0 0 0 0 0 0 0
0 0 0 0 0 0 0 0 0 0 0 0 0 0 0 0 0 0 0 0 0 0 0 0 0 0 0 0 0 0 0 0 0 0 0 0 0 0 0 0 0 0 0
0 0 0 0 0 0 0 0 0 0 0 0 0 0 0 0 0 0 0 0 0 0 0 0 0 0 0 0 0 0 0 0 0 0 0 0 0 0 0 0 0 0 0
0 0 0 0 0 0 0 0 0 0 0 0 0 0 0 0 0 0 0 0 0 0 0 0 0 0 0 0 0 0 0 0 0 0 0 0 0 0 0 0 0 0 0
0 0 0 0 0 0 0 0 0 0 0 0 0 0 0 0 0 0 0 0 0 0 0 0 0 0 0 0 0 0 0 0 0 0 0 0 0 0 0 0 0 0 0
0 0 0 0 0 0 0 0 0 0 0 0 0 0 0 0 0 0 0 0 0 0 0 0 0 0 0 0 0 0 0 0 0 0 0 0 0 0 0 0 0 0 0
0 0 0 0 0 0 0 0 0 0 0 0 0 0 0 0 0 0 0 0 0 0 0 0 0 0 0 0 0 0 0 0 0 0 0 0 0 0 0 0 0 0 0
0 0 0 0 0 0 0 0 0 0 0 0 0 0 0 0 0 0 0 0 0 0 0 0 0 0 0 0 0 0 0 0 0 0 0 0 0 0 0 0 0 0 0
0 0 0 0 0 0 0 0 0 0 0 0 0 0 0 0 0 0 0 0 0 0 0 0 0 0 0 0 0 0 0 0 0 0 0 0 0 0 0 0 0 0 0
0 0 0 0 0 0 0 0 0 0 0 0 0 0 0 0 0 0 0 0 0 0 0 0 0 0 0 0 0 0 0 0 0 0 0 0 0 0 0 0 0 0 0
0 0 0 0 0 0 0 0 0 0 0 0 0 0 0 0 0 0 0 0 0 0 0 0 0 0 0 0 0 0 0 0 0 0 0 0 0 0 0 0 0 0 0
0 0 0 0 0 0 0 0 0 0 0 0 0 0 0 0 0 0 0 0 0 0 0 0 0 0 0 0 0 0 0 0 0 0 0 0 0 0 0 0 0 0 0
0 0 0 0 0 0 0 0 0 0 0 0 0 0 0 0 0 0 0 0 0 0 0 0 0 0 0 0 0 0 0 0 0 0 0 0 0 0 0 0 0 0 0
0 0 0 0 0 0 0 0 0 0 0 0 0 0 0 0 0 0 0 0 0 0 0 0 0 0 0 0 0 0 0 0 0 0 0 0 0 0 0 0 0 0 0
0 0 0 0 0 0 0 0 0 0 0 0 0 0 0 0 0 0 0 0 0 0 0 0 0 0 0 0 0 0 0 0 0 0 0 0 0 0 0 0 0 0 0
0 0 0 0 0 0 0 0 0 0 0 0 0 0 0 0 0 0 0 0 0 0 0 0 0 0 0 0 0 0 0 0 0 0 0 0 0 0 0 0 0 0 0
0 0 0 0 0 0 0 0 0 0 0 0 0 0 0 0 0 0 0 0 0 0 0 0 0 0 0 0 0 0 0 0 0 0 0 0 0 0 0 0 0 0 0
0 0 0 0 0 0 0 0 0 0 0 0 0 0 0 0 0 0 0 0 0 0 0 0 0 0 0 0 0 0 0 0 0 0 0 0 0 0 0 0 0 0 0
0 0 0 0 0 0 0 0 0 0 0 0 0 0 0 0 0 0 0 0 0 0 0 0 0 0 0 0 0 0 0 0 0 0 0 0 0 0 0 0 0 0 0
0 0 0 0 0 0 0 0 0 0 0 0 0 0 0 0 0 0 0 0 0 0 0 0 0 0 0 0 0 0 0 0 0 0 0 0 0 0 0 0 0 0 0
Wind_Speed
4 3 2 2 1 2 2 2 2 2 1 1 1 1 1 1 1 1 1 1 1 1 1 1 1 2 2 2 1 0 0 0 1 1 2 2 2 1 2 1 1 1 2
4 3 2 2 2 3 3 3 3 3 2 2 1 1 1 0 1 1 0 0 0 1 1 2 2 2 2 2 2 1 0 0 0 1 1 3 2 1 2 1 1 2 2
5 4 3 3 3 3 4 3 3 2 2 1 1 1 1 1 1 1 1 1 0 1 1 2 2 2 2 2 3 2 2 1 1 0 1 1 3 3 2 2 2 1 2
4 4 4 4 4 5 3 3 2 2 2 2 2 2 2 2 2 1 1 1 1 1 1 1 1 1 1 2 2 2 2 2 1 1 1 1 1 2 3 2 2 2 3
4 5 5 5 5 4 3 2 2 2 2 2 3 3 2 2 1 0 1 1 1 1 1 1 1 2 1 2 2 1 2 2 2 2 1 1 2 2 3 5 3 3 2
4 4 4 3 3 3 2 1 1 2 1 1 2 3 3 2 1 1 1 1 1 1 1 1 1 1 2 2 2 2 1 2 2 2 2 2 2 2 3 4 4 4 3
3 4 4 4 4 3 2 2 2 2 2 1 2 3 3 3 3 3 2 2 1 1 2 1 1 1 1 2 1 1 1 2 2 2 2 2 3 2 2 3 4 5 4
4 4 4 4 4 4 3 2 3 3 2 2 2 2 2 2 2 2 2 2 2 2 2 1 1 2 2 1 1 1 2 1 2 2 2 2 2 2 2 3 3 4 4
4 4 4 3 3 3 3 3 3 3 2 2 1 1 1 1 2 1 1 1 1 1 1 1 1 1 1 1 1 1 2 2 2 2 3 3 2 2 3 2 2 3 4
4 4 3 3 3 2 2 1 2 2 2 1 1 1 1 1 1 0 1 1 1 1 1 1 1 1 1 1 1 1 1 1 2 2 3 3 2 2 2 3 3 3 4
4 4 3 2 2 2 1 1 1 1 0 1 0 0 1 1 1 1 2 1 1 1 1 1 1 1 1 1 1 2 1 2 2 2 3 4 3 3 3 3 3 3 4
4 4 3 2 2 2 2 1 1 1 1 1 1 1 1 0 1 1 2 1 1 1 1 1 1 1 1 1 1 2 2 3 3 3 3 4 3 4 3 3 4 4 4
4 3 3 3 2 2 2 1 1 1 1 0 1 0 0 0 1 2 1 1 1 1 1 1 2 2 2 2 2 2 3 3 4 4 4 4 4 5 4 4 4 4 4
4 4 4 3 3 2 2 2 2 1 1 0 0 0 1 1 2 2 1 1 1 1 1 2 2 2 2 3 3 3 3 4 4 4 4 5 5 5 5 4 4 4 4
5 5 4 4 3 3 2 2 2 1 1 0 1 2 1 1 1 1 1 1 1 1 2 2 2 3 3 3 3 3 3 4 4 4 5 5 6 7 6 4 4 4 4
6 6 5 4 4 4 3 3 3 2 1 1 2 1 1 1 1 1 1 1 2 2 2 2 3 3 3 5 6 4 4 4 5 5 5 5 5 6 8 8 8 6 5
7 6 6 5 5 4 4 4 3 1 1 1 1 1 1 1 1 1 1 1 2 2 2 3 3 4 5 7 7 7 5 4 4 5 4 4 4 4 4 6 8 7 8
7 6 5 5 4 3 3 3 2 2 2 1 2 1 1 2 2 1 2 2 1 2 2 3 4 4 6 7 7 6 4 4 4 4 4 5 5 4 5 4 5 5 5
7 6 5 4 3 3 3 2 2 1 2 2 2 2 2 2 2 2 2 2 2 2 2 3 3 4 5 6 6 5 3 3 5 5 4 4 5 7 8 5 5 6 5
4 4 2 2 2 3 3 3 3 2 3 3 3 2 2 3 3 3 2 2 2 2 2 3 3 4 4 6 6 5 2 4 4 4 4 5 7 8 8 4 4 6 6
4 3 2 3 3 3 3 3 3 4 4 2 2 2 2 2 2 2 2 2 2 2 2 3 3 3 4 6 7 6 3 3 4 4 3 3 7 9 9 7 4 7 6
3 3 3 3 2 3 4 4 5 4 1 1 2 2 2 2 1 1 2 1 1 2 3 3 4 3 3 4 6 8 7 6 4 4 3 4 8 9 9 7 7 9 6
4 3 3 3 3 3 4 5 4 2 2 2 2 2 1 1 1 1 2 1 1 2 2 2 3 4 3 4 7 8 8 8 5 4 6 7 8 8 6 7 8 5 2
4 3 3 4 4 3 4 5 3 2 3 3 3 2 2 1 1 1 1 2 2 2 3 3 4 4 3 3 3 3 4 5 5 3 4 7 7 6 5 4 4 3 2
3 3 4 5 5 3 3 3 3 3 3 3 2 2 2 2 1 1 2 3 3 3 4 3 3 3 4 5 6 4 3 3 3 2 2 2 2 3 3 3 3 3 3
3 3 4 5 4 3 3 2 2 3 4 3 3 2 2 1 1 1 2 3 4 5 6 6 5 4 6 8 8 8 8 7 5 2 1 2 3 3 4 4 4 3 3
Wind_Direction
286 288 276 279 255 238 241 255 257 249 201 192 197 210 250 274 296 283 262 225 223 206 189 184 192 186 190 197 181 154 23 332 8 345 317 291 248 253 240 246 265 295 313
304 302 302 289 258 251 246 246 246 235 216 209 204 209 207 259 268 290 334 290 227 225 195 187 190 194 192 197 192 171 171 256 69 49 326 313 306 280 257 249 242 263 308
275 291 291 277 270 264 251 245 243 237 228 185 107 68 35 349 316 309 310 320 272 214 202 192 190 194 189 207 210 197 191 217 243 151 190 245 276 308 284 251 252 266 285
271 275 275 276 265 263 262 254 236 234 227 177 170 181 205 234 245 248 268 311 299 247 225 200 176 189 199 207 219 203 205 197 228 238 238 244 225 257 301 285 256 267 268
266 272 267 261 266 266 257 251 232 238 229 193 188 190 217 234 243 261 289 294 287 257 237 218 190 192 201 213 207 204 205 208 212 211 212 244 250 223 243 280 293 294 265
277 278 282 282 283 280 270 257 234 253 245 208 194 191 209 218 226 253 254 271 268 259 265 242 202 202 202 209 207 204 200 218 216 223 215 219 231 228 228 257 282 289 286
282 287 295 292 289 284 270 250 236 255 257 232 218 213 216 212 219 230 233 243 248 251 265 256 227 209 217 220 203 202 217 213 216 228 237 239 252 257 246 253 275 286 292
281 280 281 278 279 275 265 242 237 248 249 240 241 233 223 218 227 228 226 237 238 240 237 230 226 215 210 218 198 214 230 228 231 245 250 252 257 258 255 249 263 285 286
284 283 291 293 290 281 265 243 235 243 245 243 247 238 226 221 223 224 218 231 236 243 230 219 224 224 214 214 200 223 238 240 241 250 255 253 259 259 261 258 245 243 272
297 294 292 298 301 288 287 287 245 235 239 232 224 230 222 233 229 205 241 239 241 239 234 235 238 245 231 216 217 244 244 238 252 247 251 258 259 261 263 257 255 248 253
289 290 292 294 301 312 319 309 295 273 275 253 230 230 225 220 203 212 240 239 243 243 245 243 240 258 266 248 239 256 265 258 268 266 260 266 263 256 256 254 254 254 251
284 283 286 296 305 307 307 295 282 260 248 207 183 223 237 212 211 234 253 249 251 257 252 253 255 257 258 255 250 262 272 266 266 268 267 270 267 259 257 251 253 255 252
291 291 289 283 280 281 283 282 273 256 257 176 184 268 307 275 250 252 254 255 257 271 277 250 248 255 257 257 257 255 267 269 267 266 267 268 266 267 265 259 260 262 263
280 279 276 269 267 264 260 262 269 255 254 187 180 280 288 278 263 262 267 262 262 261 260 260 260 263 260 257 261 265 271 271 274 272 269 268 261 262 266 261 260 263 266
280 270 265 264 260 258 255 249 251 252 233 218 247 264 282 292 270 261 276 280 267 264 265 267 271 270 263 261 267 267 269 271 276 276 272 273 268 265 265 263 257 252 257
268 266 261 258 252 243 238 237 240 235 197 215 250 282 315 324 318 275 279 282 274 270 260 256 262 268 269 276 274 275 272 271 272 277 278 277 273 278 281 280 276 266 260
262 257 252 246 242 231 219 220 225 211 201 228 262 291 299 302 307 318 298 277 275 275 270 269 268 271 274 280 283 280 275 272 271 275 282 285 285 280 281 286 289 285 278
251 250 245 244 236 220 213 206 188 191 209 240 265 280 286 292 307 301 288 285 282 272 272 274 267 270 275 283 288 292 276 270 271 272 273 279 287 285 286 285 284 282 283
241 243 237 229 223 215 205 188 193 195 213 240 251 255 247 259 274 278 281 285 282 278 275 277 273 276 284 288 291 296 276 273 276 273 270 272 279 289 292 288 287 293 293
242 239 228 209 214 218 189 187 206 212 232 241 248 247 238 241 251 260 272 280 275 276 285 288 282 278 283 292 294 296 278 280 282 282 278 275 282 291 292 281 281 289 295
243 227 211 218 223 206 184 204 218 233 237 236 243 248 247 245 250 260 274 281 283 292 291 288 289 283 282 292 295 293 286 279 286 288 286 283 292 296 296 292 277 281 295
243 217 220 239 228 194 189 215 234 239 210 205 226 243 251 253 255 256 280 288 280 283 288 293 296 290 287 289 293 293 289 293 283 283 286 290 299 300 301 298 294 298 302
244 227 225 245 240 208 196 220 236 206 188 209 230 241 253 259 256 245 259 279 267 265 276 279 284 291 291 292 294 293 293 295 288 286 297 307 310 310 309 307 310 312 303
244 229 221 242 251 228 216 222 221 180 192 216 232 232 233 252 262 252 239 241 245 252 260 266 275 286 293 287 289 286 294 295 290 297 310 313 312 313 317 323 322 319 307
248 222 222 237 247 237 232 227 202 181 201 216 223 230 238 240 246 250 249 249 246 239 251 256 259 276 286 291 296 301 295 291 289 318 327 331 326 316 315 314 311 311 311
244 236 236 241 248 236 235 227 202 189 193 212 218 218 224 235 238 254 291 278 269 282 279 277 277 278 284 303 304 302 301 303 304 313 287 292 291 289 296 300 303 303 297